Probability
0 0 0 0 0 0 0 0 0 0 0 0 0 0 0 0 0 0 0 0 0 0 0 0 0 1 2 3 3 3 3 3 3 3 3 3 3 3 3 3 3 2 1
0 0 0 0 0 0 0 0 0 0 0 0 0 0 0 0 0 0 0 0 0 0 0 0 0 0 1 2 3 3 3 3 3 3 3 3 3 3 3 3 3 3 2
0 0 0 0 0 0 0 0 0 0 0 0 0 0 0 0 0 0 0 0 0 0 0 0 0 0 0 1 2 3 3 3 3 3 3 3 3 3 3 3 3 3 3
0 0 0 0 0 0 0 0 0 0 0 0 0 0 0 0 0 0 0 0 0 0 0 0 0 0 0 0 1 1 2 3 3 3 3 3 3 3 3 3 3 3 3
0 0 0 0 0 0 0 0 0 0 0 0 0 0 0 0 0 0 0 0 0 0 0 0 0 0 0 0 0 0 1 2 3 3 3 3 3 3 3 3 3 3 3
0 0 0 0 0 0 0 0 0 0 0 0 0 0 0 0 0 0 0 0 0 0 0 0 0 0 0 0 0 0 0 1 1 2 3 3 3 3 3 3 3 3 3
0 0 0 0 0 0 0 0 0 0 0 0 0 0 0 0 0 0 0 0 0 0 0 0 0 0 0 0 0 0 0 0 0 1 2 3 3 3 3 3 3 3 3
0 0 0 0 0 0 0 0 0 0 0 0 0 0 0 0 0 0 0 0 0 0 0 0 0 0 0 0 0 0 0 0 0 0 1 3 3 2 2 3 2 2 2
0 0 0 0 0 0 0 0 0 0 0 0 0 0 0 0 0 0 0 0 0 0 0 0 0 0 0 0 0 0 0 0 0 0 1 2 2 1 2 2 2 2 2
0 0 0 0 0 0 0 0 0 0 0 0 0 0 0 0 0 0 0 0 0 0 0 0 0 0 0 0 0 0 0 0 0 0 0 1 1 1 2 2 2 2 2
0 0 0 0 0 0 0 0 0 0 0 0 0 0 0 0 0 0 0 0 0 0 0 0 0 0 0 0 0 0 0 0 0 0 0 0 0 0 1 2 2 2 3
0 0 0 0 0 0 0 0 0 0 0 0 0 0 0 0 0 0 0 0 0 0 0 0 0 0 0 0 0 0 0 0 0 0 0 0 0 0 0 1 2 2 2
0 0 0 0 0 0 0 0 0 0 0 0 0 0 0 0 0 0 0 0 0 0 0 0 0 0 0 0 0 0 0 0 0 0 0 0 0 0 0 0 1 1 1
0 0 0 0 0 0 0 0 0 0 0 0 0 0 0 0 0 0 0 0 0 0 0 0 0 0 0 0 0 0 0 0 0 0 0 0 0 0 0 0 0 0 0
0 0 0 0 0 0 0 0 0 0 0 0 0 0 0 0 0 0 0 0 0 0 0 0 0 0 0 0 0 0 0 0 0 0 0 0 0 0 0 0 0 0 0
0 0 0 0 0 0 0 0 0 0 0 0 0 0 0 0 0 0 0 0 0 0 0 0 0 0 0 0 0 0 0 0 0 0 0 0 0 0 0 0 0 0 0
0 0 0 0 0 0 0 0 0 0 0 0 0 0 0 0 0 0 0 0 0 0 0 0 0 0 0 0 0 0 0 0 0 0 0 0 0 0 0 0 0 0 0
0 0 0 0 0 0 0 0 0 0 0 0 0 0 0 0 0 0 0 0 0 0 0 0 0 0 0 0 0 0 0 0 0 0 0 0 0 0 0 0 0 0 0
1 1 0 0 0 0 0 0 0 0 0 0 0 0 0 0 0 0 0 0 0 0 0 0 0 0 0 0 0 0 0 0 0 0 0 0 0 0 0 0 0 0 0
2 2 1 0 0 0 0 0 0 0 0 0 0 0 0 0 0 0 0 0 0 0 0 0 0 0 0 0 0 0 0 0 0 0 0 0 0 0 0 0 0 0 0
2 2 1 0 0 0 0 0 0 0 0 0 0 0 0 0 0 0 0 0 0 0 0 0 0 0 0 0 0 0 0 0 0 0 0 0 0 0 0 0 0 0 0
1 1 0 0 0 0 0 0 0 0 0 0 0 0 0 0 0 0 0 0 0 0 0 0 0 0 0 0 0 0 0 0 0 0 0 0 0 0 0 0 0 0 0
0 0 0 0 0 0 0 0 0 0 0 0 0 0 0 0 0 0 0 0 0 0 0 0 0 0 0 0 0 0 0 0 0 0 0 0 0 0 0 0 0 0 0
0 0 0 0 0 0 0 0 0 0 0 0 0 0 0 0 0 0 0 0 0 0 0 0 0 0 0 0 0 0 0 0 0 0 0 0 0 0 0 0 0 0 0
0 0 0 0 0 0 0 0 0 0 0 0 0 0 0 0 0 0 0 0 0 0 0 0 0 0 0 0 0 0 0 0 0 0 0 0 0 0 0 0 0 0 0
0 0 0 0 0 0 0 0 0 0 0 0 0 0 0 0 0 0 0 0 0 0 0 0 0 0 0 0 0 0 0 0 0 0 0 0 0 0 0 0 0 0 0
Wind_Speed
4 3 2 2 2 2 2 2 2 3 3 3 3 3 3 2 2 2 2 7 9 9 9 9 10 10 10 11 11 11 12 12 13 13 13 14 14 14 15 15 15 15 15
4 3 3 2 2 2 2 2 2 2 2 2 3 2 2 2 2 2 2 4 7 9 9 10 10 11 11 11 11 12 12 13 13 14 14 14 14 15 15 15 16 16 16
4 4 3 2 2 2 2 2 3 2 2 3 2 2 1 1 1 2 2 2 3 6 9 10 11 11 12 12 12 13 13 13 14 14 15 15 15 15 16 16 16 17 17
5 4 3 2 2 2 2 2 2 2 2 2 2 2 2 1 1 1 1 2 2 2 6 10 11 12 12 13 13 14 14 14 14 15 15 16 16 16 17 17 17 17 17
5 4 3 2 3 3 2 2 2 2 2 2 2 1 2 1 1 1 2 2 2 2 2 7 10 12 13 13 14 14 15 15 15 16 16 16 16 17 17 17 17 18 18
5 4 3 3 3 3 2 2 2 2 1 1 2 2 2 2 1 1 1 1 2 2 3 4 4 7 12 14 15 15 16 16 17 17 17 17 17 18 18 18 18 18 19
4 4 3 3 3 3 2 2 2 2 2 2 2 3 3 2 2 1 2 2 2 3 3 4 3 3 5 12 14 16 17 17 18 18 18 18 18 18 19 19 19 19 19
4 4 4 3 3 3 3 2 2 2 2 2 2 1 3 4 3 3 2 2 2 3 4 5 4 4 4 3 9 16 17 18 18 19 18 19 19 19 19 20 20 20 20
4 4 4 3 3 3 2 2 2 3 1 1 2 2 1 2 4 3 3 2 3 3 3 4 4 4 5 4 5 11 17 18 18 19 19 19 20 20 20 20 20 20 20
3 4 4 4 3 2 2 2 2 2 2 1 1 1 1 1 1 4 4 3 4 4 4 5 4 4 5 4 7 14 17 18 19 19 20 20 20 20 20 20 20 20 20
3 3 4 3 3 2 2 2 2 2 2 1 1 0 0 1 0 1 5 5 4 3 3 4 3 4 4 5 5 11 17 18 19 19 20 20 20 20 20 20 20 20 20
2 2 3 3 3 2 2 2 2 2 1 1 1 1 1 0 1 1 3 6 6 5 5 3 3 3 4 5 8 16 18 18 19 19 19 19 19 20 20 20 20 20 20
2 2 2 2 2 2 2 2 2 2 2 2 1 1 1 1 1 1 2 4 6 6 4 3 3 3 5 5 6 16 16 18 19 19 19 18 19 19 19 20 20 20 20
3 3 3 2 2 2 2 2 2 1 1 1 1 0 0 1 1 1 2 3 5 5 5 5 3 3 5 5 9 15 10 18 19 18 18 18 18 18 19 19 19 19 19
3 3 3 3 2 2 2 2 2 1 1 1 1 1 1 1 1 2 2 2 2 6 7 5 4 5 6 6 10 8 8 16 18 18 18 17 17 17 18 18 18 19 19
3 4 3 3 2 2 2 2 1 1 1 1 1 1 1 1 1 2 2 2 2 4 6 5 5 6 7 8 13 9 9 18 17 18 18 17 17 17 17 18 18 18 18
4 4 4 3 3 2 2 2 2 2 2 1 1 1 2 2 2 2 2 2 3 3 6 7 5 6 7 8 9 7 8 7 8 16 17 17 17 17 17 17 17 18 18
4 4 4 3 3 2 2 3 3 2 3 2 2 2 2 2 3 2 2 3 3 4 5 8 7 6 7 8 8 9 8 8 7 14 17 17 17 17 17 17 17 17 17
4 4 4 3 3 3 3 3 3 3 3 3 3 2 3 2 3 3 3 4 4 4 4 6 7 6 6 6 8 8 8 7 8 10 13 14 16 17 17 17 17 17 17
4 4 4 3 3 3 3 3 3 3 3 3 3 3 3 3 4 4 4 4 4 4 4 5 6 6 6 6 6 7 8 7 7 7 9 11 14 15 16 17 17 16 16
4 3 3 2 2 2 3 3 3 2 2 2 2 3 3 4 5 4 4 4 3 3 4 5 6 6 6 7 7 6 8 8 7 4 6 7 7 6 8 12 14 15 16
3 3 3 3 2 2 2 2 1 2 2 2 2 3 3 4 5 6 8 8 6 5 5 5 5 7 8 7 6 7 7 8 7 4 6 8 5 6 6 5 12 15 15
3 3 3 2 2 3 2 2 2 1 2 2 2 2 3 4 5 4 6 7 7 8 7 5 6 7 7 7 7 7 7 7 7 7 6 7 5 6 6 7 14 14 15
2 2 2 2 2 2 2 2 1 1 2 2 2 3 3 4 5 5 4 5 5 5 7 5 5 6 6 6 6 6 7 7 7 5 3 5 5 5 7 6 11 14 15
2 1 2 1 1 2 2 1 1 1 1 2 2 2 3 3 7 8 4 5 6 6 7 9 9 9 11 11 9 5 5 6 7 5 3 3 4 6 5 4 7 13 14
2 1 1 1 0 1 2 1 1 1 1 2 2 3 4 6 7 7 3 4 5 6 6 6 7 8 7 7 9 5 4 5 6 5 3 4 4 5 6 4 4 5 7
Wind_Direction
118 107 97 84 75 71 76 72 65 57 52 50 51 53 42 35 36 32 16 29 25 21 18 12 6 2 360 357 355 354 350 346 342 339 336 334 331 327 325 322 318 315 313
124 116 101 89 79 77 85 92 79 67 50 48 45 40 38 31 32 29 20 20 23 19 15 9 2 358 354 352 351 349 346 342 339 337 335 332 329 326 324 321 317 313 310
126 121 111 97 85 79 78 78 66 58 50 41 31 18 22 21 34 25 16 8 2 12 13 7 1 357 352 348 346 344 341 337 336 335 333 329 326 323 321 319 318 314 311
124 116 110 103 93 83 74 74 65 56 41 31 10 351 1 6 26 21 19 11 359 354 1 3 359 355 351 346 343 341 337 335 333 332 330 328 325 322 320 318 317 315 313
123 118 113 106 95 83 70 65 53 63 41 16 354 354 352 352 348 8 14 5 351 349 346 351 353 350 348 344 341 339 336 334 331 330 328 326 324 321 319 318 317 315 313
123 119 115 107 100 91 73 68 64 47 46 3 356 352 335 327 330 349 345 345 335 343 347 341 336 336 344 343 340 337 334 331 330 329 327 325 324 321 319 318 317 315 313
127 122 119 111 107 107 110 99 79 59 28 11 32 354 335 328 326 323 323 318 327 334 338 334 329 325 327 338 339 336 333 330 328 327 326 325 323 321 320 319 317 316 314
134 131 129 128 122 113 99 89 85 78 32 31 66 36 346 336 334 323 311 302 315 331 334 333 327 325 326 326 329 334 330 328 326 325 325 325 323 321 320 319 318 317 315
135 132 133 129 123 122 127 121 114 109 106 18 54 109 107 281 307 306 297 305 321 329 321 320 325 327 328 327 318 327 331 329 327 326 325 324 322 321 321 320 319 318 317
131 130 130 126 124 123 125 131 112 112 122 115 13 42 151 192 274 310 310 312 317 314 309 316 321 319 320 320 322 328 331 329 327 326 326 324 323 322 321 321 322 321 320
127 136 134 129 129 129 130 123 112 105 120 146 159 163 37 7 232 262 300 314 317 300 300 299 302 312 316 320 317 324 331 330 328 326 326 325 325 325 324 324 323 323 323
135 136 135 134 136 136 141 142 131 119 127 133 145 161 178 191 285 276 286 303 307 303 303 295 296 308 314 319 321 330 330 329 327 327 327 326 325 325 325 324 323 324 324
167 173 149 151 148 148 145 137 130 132 148 146 172 210 234 252 251 259 280 296 302 303 304 298 290 306 319 320 318 327 326 326 326 325 326 325 324 325 324 323 323 323 323
176 166 157 151 151 148 143 134 131 150 142 158 185 216 274 279 271 256 256 292 309 306 304 296 303 299 317 317 316 325 320 323 323 324 324 324 325 324 323 322 322 322 322
157 150 152 151 155 157 155 147 151 167 153 176 200 224 260 274 282 278 265 259 278 302 302 299 305 309 315 313 317 318 315 318 323 323 323 324 323 324 324 323 322 322 322
155 151 156 158 158 160 159 153 155 162 153 210 219 226 259 275 285 283 279 279 263 268 286 291 294 302 310 315 320 320 312 321 321 322 323 324 325 324 324 323 322 323 322
160 163 167 164 166 166 171 166 179 176 184 226 247 241 266 278 282 289 291 286 277 270 282 294 294 302 306 311 315 313 310 309 312 320 322 324 325 325 325 324 323 323 322
166 166 164 167 174 176 186 185 195 197 199 216 239 252 273 286 282 285 281 281 280 278 282 298 306 309 306 309 311 312 316 316 309 316 323 323 324 326 325 324 323 324 324
163 163 163 173 184 190 198 207 206 208 211 222 232 243 260 269 275 284 282 281 285 293 291 295 302 305 306 311 316 313 312 311 314 317 322 322 323 325 325 325 325 325 325
162 167 173 180 185 192 203 215 213 216 225 237 243 248 253 253 259 271 278 283 293 300 302 301 303 308 308 311 316 319 322 323 316 316 320 320 319 323 323 323 323 324 326
160 165 167 175 183 191 209 214 211 218 225 246 268 267 267 280 288 289 297 295 296 297 304 306 306 311 314 323 322 316 316 317 309 307 314 311 312 310 315 317 321 324 329
151 153 166 174 185 213 233 227 249 217 226 252 278 288 287 280 294 304 308 306 307 305 303 301 302 308 308 310 310 313 315 323 316 319 318 309 309 307 309 308 322 330 334
150 161 171 175 202 232 231 228 259 222 239 247 261 282 297 303 308 290 300 309 308 309 305 298 294 298 301 305 310 312 313 312 302 305 313 303 310 306 309 315 327 334 337
156 167 175 186 205 239 245 240 266 201 253 256 258 260 275 292 299 306 307 307 302 300 298 296 285 291 297 302 300 300 299 301 294 291 300 298 310 306 309 311 324 336 341
140 149 166 165 187 256 265 263 345 216 265 280 280 281 286 284 304 322 320 309 311 310 312 314 313 312 315 319 323 321 318 319 314 308 310 302 308 311 305 300 319 337 342
124 116 92 78 41 284 310 319 338 217 264 288 295 293 305 311 313 322 313 305 307 311 319 324 322 320 317 315 323 314 303 309 311 307 317 319 308 320 316 304 313 330 336